Location: Unspecified
(0.0000°N, 0.0000°E)
Time: 12:37:27
(UTC+00:00)

deb Explorer IX - Visible Passes

Search period start: 29 August 2015 00:00
Search period end: 08 September 2015 00:00
Orbit: 540 x 1154 km, 38.8° (Epoch: 29 August)

Date Brightness Start Highest point End Pass type
(mag) Time Alt. Az. Time Alt. Az. Time Alt. Az.
29 Aug ? 19:17:28 10° S 19:19:13 15° SSE 19:19:13 15° SSE visible
30 Aug ? 19:01:46 10° SSW 19:05:22 21° SE 19:05:40 20° SE visible
31 Aug ? 18:46:07 10° SSW 18:50:14 25° SE 18:52:14 19° ESE visible
31 Aug ? 20:33:32 10° WSW 20:34:08 13° W 20:34:08 13° W visible
01 Sep ? 18:30:32 10° SSW 18:35:05 30° SE 18:38:51 11° E visible
01 Sep ? 20:18:27 10° W 20:20:45 21° WNW 20:20:45 21° WNW visible
02 Sep ? 05:27:30 10° N 05:31:14 17° NE 05:35:36 10° E visible
02 Sep ? 18:14:58 10° SSW 18:19:55 36° SE 18:24:11 10° ENE visible
02 Sep ? 20:03:26 10° W 20:07:13 23° NW 20:07:24 23° NW visible
03 Sep ? 05:11:59 10° N 05:15:58 19° NE 05:20:36 10° E visible
03 Sep ? 19:48:25 10° W 19:52:01 20° NW 19:54:03 15° N visible
04 Sep ? 04:56:31 10° N 05:00:41 21° NE 05:05:33 10° E visible
04 Sep ? 19:33:28 10° W 19:36:49 17° NW 19:39:43 10° N visible
05 Sep ? 04:41:05 10° N 04:45:24 24° NE 04:50:28 10° E visible
05 Sep ? 19:18:35 10° WNW 19:21:37 15° NW 19:24:13 10° N visible
06 Sep ? 04:25:42 10° NNW 04:30:07 26° NE 04:35:20 10° E visible
06 Sep ? 19:03:47 10° WNW 19:06:23 13° NW 19:08:36 10° NNW visible
07 Sep ? 04:11:18 15° N 04:14:51 30° NE 04:20:09 10° ESE visible
07 Sep ? 18:49:09 10° WNW 18:51:11 12° NW 18:52:51 10° NNW visible
